{"data":{"norad_id":56001,"epoch":"2026-05-24T22:44:20.307264Z","epoch_age_seconds":83161,"freshness":"FRESH","line1":"1 56001U 23042R   26144.94745726 -.00000329  00000+0 -24496-5 0  9999","line2":"2 56001  43.0022 353.0739 0001090 269.7416  90.3311 15.27581279174488","mean_motion":15.27581279,"eccentricity":0.000109,"inclination_deg":43.0022,"raan_deg":353.0739,"arg_perigee_deg":269.7416,"mean_anomaly_deg":90.3311,"bstar":-2.4496e-6,"rev_number":17448,"period_min":94.266669786806,"perigee_km":482.29739738919,"apogee_km":483.79313512323,"semimajor_km":6861.1822662562,"source":"CELESTRAK","updated_at":"2026-05-25T13:38:17.924395Z"}}